Regional Weather Roundup
Issued by NWS

Home | Current Version | Previous Version | Graphics & Text | Print | Product List | Glossary On
Versions: 1 2 3 4 5 6 7 8 9 10 11 12 13 14 15 16 17 18 19 20 21 22 23 24 25 26 27 28 29 30 31 32 33 34 35 36 37 38 39 40 41 42 43 44 45 46 47 48 49 50
000
ASUS43 KLMK 271810
RWRKY
KENTUCKY REGIONAL WEATHER ROUNDUP
NATIONAL WEATHER SERVICE LOUISVILLE KY
100 PM EST SAT DEC 27 2014

NOTE "FAIR" INDICATES FEW OR NO CLOUDS BELOW 12,000 FEET
WITH NO SIGNIFICANT WEATHER AND/OR OBSTRUCTIONS TO VISIBILITY.

KYZ001>023-026-027-061>063-070>075-271900-
WESTERN AND SOUTH CENTRAL KENTUCKY

CITY           SKY/WX    TMP DP  RH WIND       PRES   REMARKS
PADUCAH        CLOUDY    50  48  93 S5        30.12F FOG
HENDERSON      CLOUDY    48  45  87 S13       30.12F
OWENSBORO      LGT RAIN  48  47  97 S9        30.14F FOG
HOPKINSVILLE   DRIZZLE   50  46  87 E5        30.14F
BOWLING GREEN  CLOUDY    53  44  71 CALM      30.17F
GLASGOW        CLOUDY    51  41  67 S3        30.16F
$$

KYZ024-025-028>034-038-045-046-053-271900-
NORTH CENTRAL KENTUCKY

CITY           SKY/WX    TMP DP  RH WIND       PRES   REMARKS
LOUISVILLE/SDF CLOUDY    50  45  83 S12       30.15F
LOUISVILLE/LOU CLOUDY    50  44  80 S8        30.16F
FORT KNOX      CLOUDY    49  45  83 S8        30.14F
$$

KYZ035>037-039>044-047>052-055>060-089>105-271900-
NORTHEAST KENTUCKY

CITY           SKY/WX    TMP DP  RH WIND       PRES   REMARKS
LEXINGTON      CLOUDY    49  45  86 SW13      30.18F
COVINGTON      CLOUDY    49  41  74 SW12      30.13F
FRANKFORT      CLOUDY    51  42  71 S14       30.16F
$$

KYZ054-064>069-076>088-106>120-271900-
SOUTHEAST KENTUCKY

CITY           SKY/WX    TMP DP  RH WIND       PRES   REMARKS
JACKSON        CLOUDY    58  31  35 CALM      30.19F
LONDON         CLOUDY    57  27  31 S6        30.20F
SOMERSET       CLOUDY    54  32  43 S5        30.22F
MIDDLESBORO    CLOUDY    53  35  51 S7        30.25F
MONTICELLO     CLOUDY    58  36  43 CALM      30.22F
$$



USA.gov is the U.S. government's official web portal to all federal, state and local government web resources and services.